QPF
0.00 0.00 0.00 0.00 0.00 0.00 0.00 0.00 0.00 0.00 0.00 0.01 0.00 0.00 0.00 0.00 0.01 0.00 0.00 0.00 0.00 0.00 0.00 0.01 0.00 0.01 0.00 0.00 0.00 0.00 0.00 0.00 0.00 0.00 0.00 0.00 0.00 0.00 0.00 0.00 0.00 0.00 0.00 0.00
0.00 0.00 0.00 0.00 0.00 0.00 0.00 0.00 0.00 0.00 0.00 0.00 0.02 0.00 0.00 0.00 0.00 0.01 0.00 0.00 0.00 0.00 0.00 0.00 0.00 0.01 0.00 0.00 0.00 0.00 0.00 0.00 0.00 0.00 0.00 0.00 0.00 0.00 0.00 0.00 0.00 0.00 0.00 0.00
0.00 0.00 0.00 0.00 0.00 0.00 0.00 0.00 0.00 0.00 0.00 0.00 0.01 0.00 0.00 0.00 0.00 0.00 0.00 0.02 0.00 0.00 0.00 0.00 0.00 0.00 0.00 0.00 0.00 0.00 0.00 0.00 0.00 0.00 0.00 0.00 0.01 0.03 0.00 0.00 0.01 0.00 0.00 0.00
0.00 0.00 0.00 0.00 0.00 0.00 0.00 0.00 0.00 0.00 0.00 0.00 0.00 0.00 0.00 0.00 0.00 0.00 0.00 0.02 0.05 0.00 0.00 0.00 0.00 0.00 0.00 0.00 0.00 0.00 0.00 0.00 0.00 0.00 0.00 0.00 0.02 0.00 0.00 0.00 0.00 0.00 0.00 0.00
0.00 0.00 0.00 0.00 0.00 0.00 0.00 0.00 0.00 0.00 0.01 0.01 0.02 0.01 0.00 0.00 0.00 0.00 0.00 0.00 0.03 0.01 0.02 0.01 0.00 0.00 0.00 0.00 0.00 0.00 0.00 0.00 0.00 0.00 0.00 0.01 0.02 0.01 0.00 0.00 0.01 0.00 0.00 0.00
0.00 0.00 0.00 0.00 0.00 0.00 0.00 0.00 0.00 0.02 0.05 0.01 0.00 0.00 0.00 0.00 0.00 0.00 0.00 0.00 0.00 0.03 0.05 0.04 0.01 0.00 0.00 0.00 0.00 0.00 0.00 0.00 0.00 0.00 0.00 0.01 0.03 0.01 0.02 0.00 0.01 0.01 0.00 0.00
0.00 0.00 0.00 0.00 0.00 0.00 0.00 0.00 0.00 0.01 0.00 0.00 0.00 0.00 0.00 0.00 0.00 0.00 0.00 0.00 0.00 0.00 0.04 0.02 0.01 0.00 0.00 0.00 0.00 0.00 0.00 0.00 0.00 0.00 0.00 0.00 0.00 0.01 0.05 0.01 0.00 0.00 0.00 0.00
0.00 0.00 0.00 0.00 0.00 0.00 0.00 0.00 0.00 0.00 0.00 0.00 0.00 0.00 0.00 0.00 0.00 0.00 0.00 0.00 0.00 0.00 0.00 0.00 0.01 0.02 0.00 0.00 0.00 0.00 0.00 0.00 0.00 0.00 0.00 0.00 0.00 0.00 0.00 0.01 0.02 0.01 0.00 0.00
0.00 0.00 0.00 0.00 0.00 0.00 0.00 0.00 0.00 0.00 0.00 0.00 0.00 0.00 0.00 0.00 0.00 0.00 0.00 0.00 0.01 0.01 0.00 0.00 0.02 0.03 0.02 0.00 0.01 0.00 0.00 0.00 0.00 0.00 0.00 0.00 0.00 0.00 0.00 0.00 0.00 0.02 0.02 0.00
0.00 0.00 0.00 0.00 0.00 0.00 0.00 0.00 0.00 0.00 0.00 0.00 0.00 0.00 0.00 0.00 0.00 0.00 0.00 0.00 0.01 0.04 0.02 0.00 0.00 0.01 0.01 0.00 0.00 0.00 0.00 0.01 0.00 0.00 0.00 0.00 0.00 0.00 0.00 0.00 0.00 0.00 0.01 0.00
0.00 0.00 0.00 0.00 0.00 0.00 0.00 0.00 0.00 0.00 0.00 0.00 0.00 0.00 0.00 0.00 0.00 0.00 0.00 0.00 0.00 0.00 0.03 0.02 0.00 0.00 0.02 0.03 0.01 0.01 0.01 0.05 0.00 0.02 0.00 0.00 0.00 0.00 0.00 0.00 0.01 0.03 0.00 0.00
0.00 0.00 0.00 0.00 0.00 0.00 0.00 0.00 0.00 0.00 0.00 0.00 0.00 0.00 0.00 0.00 0.00 0.00 0.00 0.00 0.00 0.00 0.00 0.01 0.00 0.00 0.03 0.02 0.01 0.01 0.02 0.09 0.12 0.15 0.07 0.05 0.04 0.00 0.00 0.00 0.01 0.00 0.00 0.01
0.00 0.00 0.00 0.00 0.00 0.00 0.00 0.00 0.00 0.00 0.00 0.00 0.00 0.00 0.00 0.00 0.00 0.00 0.00 0.00 0.01 0.00 0.00 0.04 0.02 0.01 0.01 0.08 0.04 0.01 0.02 0.05 0.10 0.15 0.09 0.09 0.10 0.03 0.00 0.00 0.00 0.00 0.01 0.00
0.00 0.00 0.00 0.00 0.00 0.00 0.00 0.00 0.00 0.00 0.00 0.00 0.00 0.00 0.00 0.00 0.00 0.00 0.00 0.00 0.00 0.00 0.00 0.04 0.14 0.11 0.06 0.10 0.10 0.03 0.04 0.07 0.12 0.21 0.13 0.04 0.03 0.04 0.01 0.00 0.00 0.01 0.04 0.03
0.00 0.00 0.00 0.00 0.00 0.00 0.00 0.00 0.00 0.00 0.00 0.00 0.00 0.00 0.00 0.00 0.00 0.00 0.00 0.00 0.00 0.00 0.02 0.09 0.16 0.16 0.18 0.10 0.09 0.06 0.07 0.08 0.06 0.07 0.16 0.20 0.16 0.15 0.14 0.08 0.03 0.02 0.02 0.06
0.00 0.00 0.00 0.00 0.00 0.00 0.00 0.00 0.00 0.00 0.00 0.00 0.00 0.00 0.00 0.00 0.00 0.00 0.00 0.00 0.00 0.00 0.02 0.03 0.07 0.11 0.18 0.10 0.09 0.09 0.08 0.04 0.02 0.05 0.08 0.14 0.28 0.26 0.27 0.27 0.22 0.13 0.08 0.10
0.00 0.00 0.00 0.00 0.00 0.00 0.00 0.00 0.00 0.00 0.00 0.00 0.00 0.00 0.00 0.00 0.00 0.00 0.02 0.01 0.00 0.00 0.00 0.05 0.11 0.07 0.08 0.05 0.02 0.02 0.04 0.04 0.03 0.01 0.01 0.05 0.21 0.15 0.09 0.05 0.22 0.25 0.24 0.22
0.00 0.00 0.00 0.00 0.00 0.00 0.00 0.00 0.00 0.00 0.00 0.00 0.00 0.00 0.00 0.00 0.00 0.00 0.01 0.01 0.03 0.04 0.07 0.04 0.01 0.03 0.03 0.04 0.04 0.03 0.05 0.04 0.05 0.03 0.01 0.01 0.06 0.13 0.05 0.01 0.03 0.10 0.18 0.16
0.00 0.00 0.00 0.00 0.00 0.00 0.00 0.00 0.00 0.00 0.00 0.00 0.00 0.00 0.00 0.00 0.00 0.01 0.01 0.01 0.00 0.00 0.03 0.10 0.02 0.01 0.01 0.04 0.06 0.07 0.21 0.22 0.32 0.25 0.16 0.13 0.08 0.07 0.07 0.03 0.01 0.03 0.02 0.04
0.00 0.00 0.00 0.00 0.00 0.00 0.00 0.00 0.01 0.00 0.00 0.00 0.00 0.00 0.00 0.00 0.00 0.01 0.01 0.02 0.03 0.00 0.04 0.12 0.11 0.13 0.09 0.03 0.02 0.01 0.04 0.07 0.12 0.14 0.15 0.16 0.23 0.15 0.08 0.06 0.07 0.04 0.03 0.01
0.00 0.00 0.00 0.00 0.00 0.00 0.00 0.00 0.00 0.01 0.00 0.00 0.00 0.00 0.04 0.04 0.03 0.17 0.07 0.09 0.05 0.07 0.09 0.09 0.06 0.04 0.03 0.03 0.06 0.04 0.01 0.01 0.04 0.01 0.02 0.05 0.13 0.12 0.08 0.08 0.07 0.05 0.04 0.03
0.00 0.00 0.00 0.00 0.00 0.00 0.00 0.00 0.00 0.00 0.00 0.00 0.00 0.00 0.00 0.00 0.05 0.16 0.07 0.05 0.02 0.03 0.09 0.10 0.04 0.01 0.00 0.00 0.01 0.01 0.02 0.00 0.00 0.00 0.01 0.00 0.00 0.01 0.02 0.04 0.04 0.02 0.01 0.01
0.00 0.00 0.00 0.00 0.00 0.00 0.00 0.00 0.00 0.00 0.00 0.00 0.00 0.00 0.00 0.01 0.01 0.01 0.03 0.03 0.01 0.00 0.00 0.00 0.00 0.00 0.00 0.01 0.00 0.01 0.01 0.00 0.00 0.00 0.00 0.00 0.00 0.00 0.00 0.00 0.00 0.00 0.00 0.00
0.00 0.00 0.00 0.00 0.00 0.00 0.00 0.00 0.00 0.00 0.00 0.00 0.00 0.00 0.00 0.00 0.00 0.02 0.05 0.03 0.00 0.00 0.00 0.00 0.00 0.00 0.00 0.00 0.00 0.00 0.00 0.00 0.00 0.00 0.00 0.00 0.00 0.00 0.00 0.00 0.00 0.00 0.00 0.00
0.00 0.00 0.00 0.00 0.00 0.00 0.00 0.00 0.00 0.00 0.00 0.00 0.00 0.00 0.00 0.00 0.00 0.01 0.01 0.00 0.00 0.00 0.00 0.00 0.00 0.00 0.00 0.00 0.00 0.00 0.00 0.00 0.00 0.00 0.00 0.00 0.00 0.00 0.00 0.00 0.00 0.00 0.00 0.00
0.00 0.00 0.00 0.00 0.00 0.00 0.00 0.00 0.00 0.00 0.00 0.00 0.00 0.00 0.00 0.00 0.00 0.00 0.00 0.00 0.00 0.00 0.00 0.00 0.00 0.00 0.00 0.00 0.00 0.00 0.00 0.00 0.00 0.00 0.00 0.00 0.00 0.00 0.00 0.00 0.00 0.00 0.00 0.00
MSLP
1008.52 1009.45 1009.76 1010.00 1010.09 1009.76 1010.38 1010.94 1011.12 1011.27 1011.30 1011.87 1012.24 1012.66 1012.64 1012.80 1012.86 1012.95 1013.08 1012.95 1013.57 1013.88 1013.82 1014.20 1014.70 1015.03 1015.67 1015.84 1016.06 1016.26 1016.62 1016.69 1016.85 1017.24 1017.52 1017.58 1017.50 1017.52 1017.62 1017.25 1017.27 1017.55 1017.52 1017.37
1009.07 1009.16 1008.86 1009.20 1009.64 1009.80 1010.09 1010.43 1010.65 1010.92 1010.99 1011.58 1012.00 1012.36 1012.43 1012.74 1012.79 1012.54 1012.75 1012.81 1012.86 1013.38 1013.72 1014.07 1014.56 1014.87 1015.10 1015.59 1015.88 1016.15 1016.37 1016.57 1016.51 1016.95 1017.24 1017.32 1017.36 1017.40 1017.55 1017.38 1017.29 1017.35 1017.41 1017.39
1008.86 1008.05 1007.72 1008.42 1008.94 1009.33 1009.68 1009.94 1010.30 1010.45 1011.11 1011.35 1011.97 1012.39 1012.44 1012.29 1012.59 1012.56 1012.60 1012.48 1012.51 1012.76 1013.01 1013.43 1014.08 1014.40 1014.75 1015.19 1015.48 1015.74 1015.79 1016.26 1016.38 1016.85 1017.21 1017.25 1017.24 1017.23 1017.58 1017.64 1017.44 1017.21 1017.17 1017.08
1008.25 1007.54 1007.39 1007.53 1008.11 1008.33 1009.08 1008.68 1009.45 1010.41 1011.41 1011.78 1011.94 1012.72 1012.41 1012.42 1012.47 1012.52 1012.42 1012.73 1012.66 1012.43 1012.75 1013.05 1013.37 1013.84 1014.26 1014.46 1015.03 1015.42 1015.57 1015.68 1016.12 1016.65 1016.82 1017.01 1017.26 1017.61 1017.41 1017.46 1017.23 1017.00 1017.03 1017.14
1007.49 1006.90 1006.65 1006.77 1006.70 1007.05 1007.63 1007.89 1009.22 1010.46 1012.04 1012.34 1012.59 1013.00 1012.17 1012.26 1012.12 1011.75 1011.78 1011.84 1012.12 1012.36 1012.37 1012.40 1012.66 1012.96 1013.40 1014.03 1014.59 1014.85 1015.29 1015.67 1015.75 1016.32 1016.68 1016.92 1017.28 1017.44 1017.39 1017.36 1017.38 1017.33 1017.32 1017.55
1006.97 1006.09 1005.85 1005.54 1005.79 1006.37 1006.98 1008.71 1010.28 1011.76 1012.81 1013.24 1012.27 1012.91 1012.44 1012.17 1011.53 1010.92 1011.02 1010.95 1011.05 1011.52 1012.00 1012.16 1012.39 1012.68 1013.19 1013.81 1014.48 1014.80 1015.11 1015.50 1015.68 1016.09 1016.32 1016.66 1017.02 1017.26 1017.31 1017.38 1017.57 1017.48 1017.36 1017.35
1006.93 1006.02 1005.29 1004.90 1005.57 1006.62 1007.50 1009.52 1011.68 1013.25 1013.87 1013.52 1012.58 1012.88 1011.75 1011.22 1010.79 1010.63 1010.62 1010.57 1010.50 1010.82 1011.28 1011.96 1012.35 1012.70 1013.01 1013.50 1014.17 1014.58 1014.82 1015.25 1015.60 1015.84 1016.03 1016.30 1016.70 1017.09 1017.15 1017.05 1017.29 1017.56 1017.42 1017.28
1007.64 1006.63 1005.61 1005.01 1005.22 1006.32 1007.84 1009.28 1011.02 1012.56 1013.82 1013.40 1012.86 1012.31 1010.99 1010.79 1010.62 1010.44 1010.40 1009.78 1010.00 1010.23 1010.88 1011.29 1011.40 1012.31 1012.59 1013.12 1013.59 1014.01 1014.69 1014.77 1015.30 1015.56 1015.86 1016.05 1016.29 1016.68 1016.86 1016.94 1017.00 1017.12 1017.15 1017.03
1007.74 1007.01 1005.72 1005.42 1005.34 1006.11 1007.96 1009.19 1009.83 1011.86 1013.28 1013.34 1013.04 1012.14 1010.93 1010.48 1010.49 1010.42 1010.20 1009.63 1009.58 1009.72 1009.96 1010.47 1011.19 1011.85 1012.27 1013.15 1013.18 1013.33 1014.10 1014.50 1014.70 1015.14 1015.46 1015.80 1015.99 1016.26 1016.58 1016.72 1016.77 1016.80 1016.87 1016.89
1007.30 1007.65 1006.80 1006.25 1005.92 1006.87 1007.50 1009.06 1010.49 1012.00 1013.51 1013.97 1013.45 1012.65 1011.57 1010.72 1010.75 1010.43 1010.22 1009.96 1009.92 1010.26 1010.05 1010.10 1010.56 1011.36 1012.14 1012.55 1012.72 1012.87 1013.24 1013.81 1013.99 1014.76 1015.17 1015.50 1015.75 1016.03 1016.18 1016.44 1016.69 1016.62 1016.63 1016.70
1007.45 1008.10 1008.23 1007.64 1008.39 1008.41 1008.73 1009.80 1011.38 1012.73 1013.69 1014.08 1013.91 1012.85 1010.94 1010.75 1010.74 1010.55 1010.42 1010.03 1009.62 1009.94 1009.63 1009.61 1010.13 1010.64 1011.23 1011.94 1012.47 1012.73 1013.14 1013.53 1013.82 1014.22 1014.77 1015.17 1015.47 1015.75 1015.96 1016.15 1016.34 1016.56 1016.54 1016.67
1007.59 1009.01 1010.10 1010.22 1009.83 1009.39 1009.62 1010.88 1011.80 1013.14 1014.35 1014.48 1014.01 1012.17 1010.82 1010.76 1010.56 1010.74 1010.43 1009.92 1009.38 1009.45 1009.58 1009.75 1010.08 1010.51 1011.13 1011.82 1012.46 1012.71 1013.23 1013.29 1013.65 1014.13 1014.54 1014.88 1015.29 1015.66 1015.84 1015.89 1016.01 1016.19 1016.38 1016.62
1007.53 1009.56 1011.02 1011.48 1010.89 1010.27 1010.65 1011.27 1012.03 1012.88 1013.69 1014.19 1014.13 1012.12 1010.89 1010.67 1010.68 1010.50 1010.31 1010.06 1009.67 1009.53 1009.84 1009.94 1010.36 1010.80 1011.28 1011.62 1012.46 1012.73 1012.91 1013.31 1013.78 1014.13 1014.58 1014.66 1014.95 1015.43 1015.58 1015.68 1015.74 1016.00 1016.15 1016.32
1007.30 1010.29 1011.15 1011.50 1011.25 1011.11 1011.36 1011.39 1011.73 1012.54 1013.61 1013.90 1013.13 1011.89 1011.00 1011.06 1011.12 1011.00 1010.66 1010.42 1010.07 1010.02 1010.24 1010.48 1010.73 1011.09 1011.49 1012.07 1012.60 1012.95 1013.02 1013.16 1012.88 1013.39 1014.42 1014.73 1014.62 1014.87 1015.17 1015.43 1015.63 1015.83 1016.02 1016.27
1008.26 1010.53 1011.31 1011.33 1011.25 1011.25 1011.18 1011.37 1011.78 1012.30 1012.45 1012.95 1012.35 1012.01 1011.22 1011.47 1011.59 1011.41 1011.10 1010.78 1010.61 1010.41 1010.50 1010.52 1011.09 1011.32 1011.91 1012.57 1012.99 1013.18 1013.42 1013.53 1013.37 1013.79 1014.08 1014.75 1015.01 1015.19 1015.43 1015.52 1015.44 1015.47 1015.75 1015.91
1009.28 1010.99 1011.79 1012.08 1011.61 1011.38 1011.30 1011.12 1011.43 1011.67 1011.86 1012.14 1012.02 1011.91 1011.57 1011.69 1011.80 1011.95 1011.66 1011.33 1010.99 1010.83 1010.64 1011.18 1011.13 1011.49 1012.15 1012.61 1012.70 1013.18 1013.37 1013.82 1013.50 1013.59 1013.86 1014.32 1015.00 1015.35 1015.61 1015.89 1015.76 1015.55 1015.61 1015.79
1009.86 1011.18 1012.67 1012.92 1012.33 1011.89 1011.53 1010.71 1010.65 1010.91 1011.05 1011.35 1011.62 1011.36 1011.56 1011.89 1012.25 1012.32 1012.04 1011.57 1011.17 1011.11 1010.87 1010.82 1011.17 1011.42 1011.93 1012.19 1012.67 1013.27 1013.74 1013.85 1013.69 1013.85 1014.47 1014.68 1014.60 1015.01 1015.63 1015.75 1015.73 1015.65 1015.91 1016.14
1010.29 1011.82 1012.78 1013.57 1013.04 1012.50 1010.95 1010.33 1010.16 1010.47 1010.46 1010.76 1011.14 1011.35 1011.55 1011.91 1012.32 1012.36 1011.84 1011.91 1011.61 1011.68 1011.38 1011.08 1011.24 1011.61 1011.64 1011.85 1012.60 1013.23 1013.59 1013.69 1013.85 1014.19 1014.37 1014.59 1014.60 1014.77 1015.44 1015.81 1016.06 1016.04 1016.16 1016.43
1009.97 1011.60 1013.45 1013.86 1013.46 1012.30 1010.66 1010.14 1009.99 1010.36 1010.24 1010.22 1010.72 1011.42 1011.77 1012.02 1012.17 1012.40 1011.97 1012.01 1011.74 1011.96 1011.90 1012.03 1011.89 1011.82 1011.77 1012.04 1012.37 1012.74 1013.25 1013.60 1013.77 1013.78 1014.02 1014.19 1014.62 1014.88 1015.48 1015.90 1016.25 1016.43 1016.68 1016.85
1010.65 1011.13 1012.55 1014.02 1013.42 1012.19 1010.34 1009.58 1009.53 1010.04 1010.30 1009.85 1010.60 1011.47 1011.99 1012.13 1012.26 1012.19 1012.21 1011.93 1011.92 1012.35 1012.62 1012.47 1011.98 1012.06 1012.50 1012.84 1012.92 1013.27 1013.38 1012.99 1013.03 1013.38 1013.61 1014.02 1014.38 1014.92 1015.27 1015.79 1016.12 1016.70 1017.09 1017.59
1011.29 1012.40 1013.27 1013.61 1013.00 1011.66 1009.78 1009.38 1009.38 1010.33 1010.62 1010.15 1010.55 1011.10 1011.65 1011.91 1011.81 1011.84 1012.14 1012.09 1012.20 1012.38 1012.81 1012.89 1012.96 1013.20 1013.22 1013.35 1013.30 1013.46 1013.71 1014.10 1013.99 1013.83 1014.04 1014.12 1014.23 1014.69 1015.24 1015.89 1016.32 1016.80 1017.52 1018.04
1011.09 1012.23 1013.38 1013.79 1012.75 1011.06 1009.43 1009.69 1009.53 1009.76 1010.09 1010.30 1010.67 1011.12 1011.51 1011.57 1011.94 1012.11 1012.46 1012.84 1012.75 1012.95 1013.14 1013.28 1013.68 1013.90 1013.90 1013.74 1013.70 1014.02 1014.12 1014.20 1014.12 1014.51 1014.66 1014.79 1014.96 1015.48 1015.88 1016.14 1016.77 1017.30 1017.72 1018.18
1010.63 1010.75 1011.58 1012.17 1011.18 1009.91 1009.52 1009.59 1009.13 1009.22 1010.06 1010.53 1010.80 1011.01 1011.09 1011.88 1012.36 1012.77 1012.70 1013.48 1013.69 1013.63 1013.93 1013.99 1014.10 1014.28 1014.34 1014.43 1014.34 1014.56 1015.10 1014.98 1015.06 1015.20 1015.61 1015.89 1016.13 1016.36 1016.62 1016.96 1017.59 1018.14 1018.46 1018.82
1009.83 1010.00 1010.60 1011.32 1010.05 1009.57 1009.40 1009.25 1009.17 1009.33 1009.89 1010.20 1010.50 1010.89 1011.35 1012.09 1012.65 1013.08 1013.51 1013.98 1014.05 1014.17 1014.35 1014.48 1014.67 1014.79 1015.01 1015.23 1015.28 1015.45 1015.53 1015.49 1015.55 1016.17 1016.46 1016.92 1017.18 1017.71 1017.80 1018.16 1018.49 1018.93 1019.25 1019.49
1008.98 1009.48 1010.18 1010.29 1009.78 1009.10 1008.74 1008.93 1009.03 1009.42 1009.98 1010.17 1010.56 1011.06 1011.45 1012.07 1012.66 1013.17 1013.73 1013.90 1014.21 1014.55 1014.90 1015.08 1015.32 1015.51 1015.48 1015.70 1015.86 1015.76 1015.77 1015.78 1016.13 1016.70 1017.18 1017.64 1018.13 1018.38 1018.72 1019.33 1019.58 1019.69 1019.96 1020.15
1008.04 1008.42 1008.90 1008.90 1008.23 1008.15 1008.04 1008.05 1008.56 1009.33 1009.76 1010.06 1010.73 1011.17 1011.41 1012.00 1012.60 1013.07 1013.70 1013.96 1014.49 1014.99 1015.35 1015.46 1015.68 1015.85 1015.97 1016.10 1016.08 1016.05 1016.07 1016.23 1016.64 1017.22 1017.70 1018.14 1018.71 1019.13 1019.58 1019.98 1020.23 1020.16 1020.21 1020.18
Thickness
5756 5738 5728 5736 5748 5760 5751 5739 5738 5745 5753 5744 5737 5737 5740 5742 5745 5741 5744 5750 5748 5747 5754 5754 5753 5753 5749 5749 5748 5748 5748 5749 5750 5749 5749 5750 5752 5755 5757 5759 5761 5760 5762 5763
5737 5727 5749 5754 5753 5751 5747 5742 5738 5749 5755 5747 5737 5737 5744 5744 5745 5749 5747 5750 5753 5752 5753 5753 5751 5753 5753 5752 5752 5751 5751 5751 5754 5754 5753 5753 5755 5757 5756 5759 5761 5762 5763 5763
5725 5746 5764 5755 5750 5743 5741 5736 5735 5746 5748 5753 5743 5733 5740 5750 5747 5747 5750 5754 5757 5756 5756 5758 5753 5754 5756 5754 5754 5755 5758 5755 5755 5754 5754 5755 5757 5758 5756 5758 5761 5764 5765 5766
5736 5756 5755 5751 5744 5750 5725 5760 5758 5750 5733 5716 5745 5709 5735 5740 5742 5744 5747 5744 5750 5761 5759 5757 5759 5757 5757 5759 5760 5759 5761 5761 5761 5759 5757 5757 5754 5751 5756 5756 5763 5768 5767 5767
5739 5755 5755 5749 5754 5764 5752 5772 5757 5747 5724 5728 5725 5712 5733 5738 5737 5746 5750 5753 5752 5755 5762 5759 5763 5764 5764 5763 5761 5763 5763 5761 5764 5760 5757 5756 5755 5756 5758 5759 5761 5763 5765 5764
5750 5774 5773 5769 5777 5771 5773 5749 5733 5715 5710 5697 5725 5718 5722 5726 5740 5754 5757 5759 5762 5759 5759 5761 5763 5766 5765 5764 5760 5761 5763 5761 5763 5762 5760 5757 5756 5758 5759 5760 5758 5759 5762 5764
5745 5761 5776 5786 5767 5764 5748 5723 5680 5685 5684 5690 5717 5712 5724 5745 5754 5755 5755 5758 5763 5764 5760 5756 5757 5758 5761 5761 5758 5758 5762 5760 5761 5763 5762 5760 5758 5758 5759 5763 5761 5757 5760 5762
5719 5718 5764 5779 5768 5749 5740 5725 5690 5682 5669 5694 5712 5704 5728 5747 5753 5758 5759 5764 5764 5764 5760 5761 5764 5757 5759 5759 5760 5760 5760 5763 5763 5763 5762 5762 5762 5761 5760 5762 5762 5763 5762 5764
5715 5724 5768 5771 5776 5766 5741 5724 5737 5697 5694 5690 5697 5719 5737 5746 5748 5751 5755 5760 5760 5764 5765 5765 5763 5759 5757 5753 5758 5763 5761 5764 5765 5765 5764 5763 5764 5763 5761 5762 5764 5765 5767 5766
5744 5721 5752 5760 5774 5760 5752 5744 5714 5696 5693 5690 5690 5700 5705 5737 5738 5744 5747 5752 5754 5751 5759 5762 5765 5759 5756 5756 5759 5764 5766 5763 5767 5766 5765 5764 5764 5764 5763 5762 5761 5764 5767 5765
5742 5729 5729 5743 5726 5726 5727 5718 5705 5695 5685 5676 5672 5686 5727 5732 5737 5739 5743 5750 5755 5753 5757 5761 5761 5763 5764 5757 5758 5761 5761 5761 5765 5765 5765 5763 5761 5762 5762 5763 5763 5762 5766 5766
5744 5713 5696 5711 5727 5734 5728 5715 5701 5685 5688 5672 5672 5687 5735 5734 5739 5737 5739 5749 5756 5753 5754 5756 5755 5756 5758 5755 5753 5754 5756 5759 5762 5761 5762 5763 5762 5760 5759 5762 5764 5764 5763 5764
5743 5702 5678 5685 5704 5722 5712 5713 5703 5689 5682 5675 5669 5686 5733 5732 5735 5740 5738 5742 5748 5750 5748 5750 5748 5746 5750 5753 5751 5753 5756 5756 5756 5755 5755 5759 5760 5759 5759 5761 5763 5763 5764 5764
5740 5695 5694 5675 5692 5701 5700 5707 5708 5695 5674 5675 5678 5703 5723 5722 5726 5728 5731 5733 5740 5741 5741 5740 5739 5742 5745 5744 5745 5746 5750 5753 5757 5754 5748 5752 5757 5757 5756 5757 5758 5758 5759 5759
5728 5699 5701 5701 5705 5702 5700 5701 5696 5690 5692 5682 5695 5693 5712 5713 5714 5719 5725 5729 5731 5733 5735 5736 5734 5737 5734 5736 5736 5738 5741 5744 5748 5747 5745 5744 5746 5747 5749 5751 5754 5755 5755 5755
5712 5690 5697 5689 5697 5692 5689 5695 5691 5692 5694 5686 5690 5691 5705 5706 5712 5708 5715 5719 5723 5727 5729 5729 5731 5732 5729 5729 5730 5732 5732 5734 5741 5743 5743 5742 5738 5739 5740 5742 5744 5748 5751 5751
5705 5685 5673 5670 5677 5677 5670 5685 5688 5692 5694 5692 5684 5695 5701 5697 5697 5699 5705 5713 5718 5723 5726 5726 5727 5727 5726 5726 5726 5723 5722 5725 5731 5732 5731 5732 5737 5735 5733 5736 5739 5742 5741 5743
5691 5678 5666 5657 5665 5653 5682 5694 5695 5687 5695 5695 5695 5694 5694 5693 5693 5697 5703 5703 5708 5712 5719 5724 5723 5723 5726 5725 5721 5718 5719 5721 5723 5722 5724 5726 5729 5729 5727 5728 5730 5733 5734 5734
5700 5678 5654 5652 5643 5665 5688 5687 5683 5676 5684 5696 5693 5691 5689 5690 5692 5692 5700 5702 5704 5707 5711 5711 5715 5717 5720 5719 5720 5718 5716 5717 5716 5716 5717 5721 5721 5722 5720 5720 5720 5723 5724 5724
5691 5684 5674 5646 5657 5650 5676 5697 5697 5693 5666 5697 5693 5685 5684 5687 5679 5689 5694 5698 5699 5700 5702 5704 5710 5710 5708 5706 5712 5712 5711 5715 5716 5716 5716 5717 5716 5716 5717 5716 5714 5712 5712 5710
5671 5662 5657 5647 5650 5660 5691 5699 5701 5667 5671 5693 5691 5685 5683 5682 5688 5693 5691 5691 5696 5699 5698 5700 5703 5695 5698 5698 5705 5707 5706 5700 5706 5711 5711 5711 5714 5713 5708 5706 5706 5704 5702 5700
5676 5660 5649 5639 5647 5650 5697 5693 5682 5689 5692 5691 5688 5685 5684 5689 5687 5687 5683 5683 5688 5691 5694 5694 5692 5691 5695 5699 5702 5701 5701 5702 5705 5703 5702 5705 5707 5702 5700 5701 5698 5694 5693 5693
5677 5676 5664 5661 5658 5685 5691 5692 5701 5699 5693 5689 5688 5688 5690 5683 5680 5677 5679 5676 5678 5685 5686 5687 5688 5690 5692 5693 5697 5695 5691 5696 5697 5697 5696 5696 5691 5691 5691 5690 5687 5683 5682 5683
5691 5685 5675 5675 5690 5689 5694 5698 5700 5700 5697 5693 5693 5690 5688 5680 5678 5674 5671 5671 5674 5679 5681 5682 5683 5683 5683 5683 5685 5686 5686 5689 5690 5685 5685 5681 5681 5679 5680 5677 5676 5675 5674 5673
5692 5688 5674 5678 5690 5697 5701 5699 5700 5698 5695 5695 5693 5691 5689 5684 5679 5676 5672 5674 5675 5677 5675 5676 5675 5676 5678 5678 5677 5680 5682 5684 5681 5678 5676 5671 5667 5667 5665 5663 5663 5666 5663 5661
5696 5688 5677 5675 5699 5699 5701 5707 5705 5698 5695 5695 5691 5688 5690 5687 5680 5679 5677 5678 5676 5672 5671 5672 5671 5672 5672 5672 5673 5673 5674 5674 5672 5668 5663 5659 5655 5653 5652 5651 5651 5653 5653 5653